Temp
55 55 55 55 55 55 55 56 56 56 56 56 57 57 58 57 57 52 47 47 45 42 45 52 54 51 51 49 48 53 54 54 53 49 49 48 48 51 48 50 48 50 46 44 44 43 46 60 61 57 57 58 62 63
55 55 55 55 55 55 55 55 55 55 56 56 56 56 57 57 56 53 42 48 48 43 48 52 56 60 60 59 52 49 50 50 53 50 47 46 48 47 46 48 51 50 52 48 50 50 57 58 58 60 61 61 62 62
55 55 55 55 55 55 55 55 55 55 56 56 56 56 56 56 55 54 51 44 43 41 44 45 51 57 56 61 61 51 51 54 52 53 49 47 48 48 46 48 49 52 53 51 51 58 58 61 61 62 64 65 66 65
55 55 55 55 55 55 55 55 55 55 55 55 55 56 56 55 55 54 50 43 43 42 40 48 60 57 60 57 61 64 56 54 53 52 49 47 49 51 48 51 51 54 54 50 50 53 57 60 61 63 64 65 65 65
54 54 54 54 54 55 55 55 55 54 54 54 54 55 55 55 54 53 52 53 47 44 41 44 51 55 57 57 59 61 54 52 52 52 49 50 49 50 47 48 49 54 52 50 49 56 55 57 61 64 63 64 64 62
54 54 54 54 54 54 55 54 54 54 54 54 54 54 54 54 53 46 45 49 51 46 46 43 50 52 57 58 57 54 53 53 52 50 50 50 52 52 48 44 54 54 55 57 56 57 59 61 63 64 63 63 63 62
54 54 54 54 54 54 54 54 54 54 53 53 53 53 53 53 50 44 47 48 50 47 44 42 44 54 58 57 55 54 54 54 53 50 49 51 52 50 46 47 58 56 57 58 59 60 57 60 59 63 64 64 62 62
53 53 54 54 54 54 54 54 54 53 53 54 53 53 53 53 52 47 50 52 48 45 46 41 43 49 57 52 53 52 52 52 52 53 49 50 49 48 48 54 55 59 59 59 60 59 60 60 60 61 62 61 60 59
53 53 53 53 54 54 53 54 54 54 53 53 53 53 49 46 47 49 57 56 48 48 43 43 41 44 54 50 50 52 50 49 51 51 50 52 46 47 53 56 55 57 58 58 59 59 59 59 59 59 59 59 57 57
53 53 53 53 53 53 53 54 54 53 53 53 50 49 48 48 56 56 49 46 46 46 44 41 43 44 50 49 50 49 48 47 46 51 51 49 48 53 55 56 59 58 59 58 55 53 54 55 56 57 57 59 59 58
53 53 53 53 53 53 53 53 53 52 53 48 44 44 48 53 49 47 44 43 44 43 44 44 44 45 52 48 48 48 50 48 44 49 49 44 45 51 53 54 56 57 58 59 59 60 60 59 57 57 58 59 58 57
53 53 53 53 53 53 53 53 53 50 47 48 48 50 49 46 45 43 43 44 44 44 47 47 48 46 48 48 47 48 47 48 44 48 47 44 47 49 53 55 54 55 58 61 61 61 60 60 59 57 57 57 57 57
53 53 53 53 53 53 53 53 53 53 52 51 47 47 45 45 38 41 40 43 43 51 53 53 51 52 52 48 47 46 45 44 48 45 45 46 48 50 52 53 55 57 59 59 59 60 60 59 59 57 57 58 57 56
52 52 52 52 53 53 53 53 54 52 47 46 46 38 44 41 43 44 44 49 53 53 52 51 50 48 50 49 46 44 47 46 43 40 44 46 48 50 52 54 55 56 58 59 58 59 59 58 57 58 58 57 56 55
52 52 52 52 53 53 53 53 53 50 46 45 44 38 41 48 52 55 53 52 52 50 49 49 46 46 48 47 47 49 45 43 44 43 46 48 50 52 53 54 55 55 56 56 55 55 55 56 55 55 56 55 55 54
52 52 51 52 52 53 52 52 51 50 48 46 45 41 43 43 49 52 53 52 55 51 52 49 45 46 42 43 46 44 44 43 44 46 50 50 53 54 55 56 55 56 55 54 54 54 53 53 53 53 53 53 53 53
52 48 52 52 52 52 53 49 47 47 46 45 42 43 43 44 44 49 52 52 54 50 47 47 45 45 45 42 46 48 44 46 48 50 53 53 54 56 54 55 55 55 53 52 52 51 51 51 52 51 51 51 52 53
48 51 52 52 52 51 49 49 45 46 43 44 40 42 44 46 45 45 47 48 52 49 49 48 48 46 45 42 42 46 49 50 50 52 54 55 55 54 55 54 54 53 53 52 51 51 50 50 49 49 49 51 52 53
50 51 52 52 50 47 44 44 48 42 45 47 44 43 44 44 44 46 47 48 48 49 50 47 45 42 43 44 46 48 49 51 51 52 54 56 55 55 55 54 53 53 52 52 51 49 49 50 51 53 52 52 53 53
52 52 52 52 52 45 42 43 48 44 43 45 46 41 41 42 44 45 45 45 46 46 45 45 45 46 48 48 51 53 54 55 53 52 54 54 54 54 55 54 53 52 51 51 50 48 50 50 51 53 54 54 54 53
50 50 52 50 47 46 43 42 42 44 45 41 40 39 40 41 41 41 42 45 44 43 43 46 47 50 53 53 52 53 55 54 53 54 54 52 53 54 53 53 53 51 51 50 51 51 49 52 52 55 56 55 55 56
48 52 48 48 44 44 42 44 41 44 41 39 40 44 39 38 41 41 44 43 43 45 46 48 52 53 52 54 53 54 55 59 57 54 50 51 53 53 53 53 52 52 52 52 53 54 55 56 57 57 56 57 56 59
50 49 47 45 41 40 39 47 41 44 40 42 45 43 42 44 47 51 46 44 46 50 50 51 54 52 55 54 53 54 57 57 55 57 57 55 54 54 54 55 54 54 54 54 54 54 54 51 53 55 57 57 58 58
50 44 42 41 40 37 44 41 43 42 42 42 42 43 45 42 47 46 46 50 53 52 50 48 50 49 49 50 51 55 58 60 59 57 57 55 54 55 54 54 55 56 57 57 56 55 55 56 52 56 57 58 59 58
38 39 39 35 42 40 39 40 41 41 40 43 43 44 45 46 45 45 48 49 50 52 53 53 53 51 49 52 53 55 60 58 58 58 58 56 55 54 55 54 55 56 57 56 56 57 57 56 57 57 58 58 59 60
34 40 36 40 40 38 40 39 41 41 42 42 44 46 48 45 43 44 46 49 51 52 52 52 53 52 52 52 54 56 58 59 60 57 60 58 58 56 56 56 58 59 58 59 59 59 59 59 59 59 59 59 50 58
34 37 41 45 42 42 41 42 43 41 41 41 44 44 44 42 43 46 51 52 52 54 55 54 54 53 54 56 56 57 56 55 57 59 59 58 58 59 59 59 59 61 61 60 60 62 62 62 62 62 62 62 61 62
40 41 37 40 41 43 40 42 42 41 44 46 45 43 43 44 45 48 51 53 55 55 54 55 58 56 54 54 56 56 56 56 56 55 56 58 57 59 59 61 61 51 61 62 63 62 62 63 62 64 62 63 64 63
38 42 42 38 39 40 42 42 44 47 46 46 44 44 45 50 51 50 56 59 60 53 53 57 57 54 53 54 54 54 54 55 54 54 56 57 58 62 61 60 60 60 61 62 48 57 63 63 64 65 66 64 65 64
40 43 39 37 35 35 39 43 42 46 47 48 48 48 50 53 56 60 59 59 56 54 59 59 59 54 54 54 56 57 57 58 59 59 58 59 61 64 61 60 59 59 59 59 62 60 48 58 55 63 63 63 62 62
43 41 40 42 42 43 47 51 50 46 47 49 50 47 48 50 54 58 57 58 58 58 55 56 57 56 57 55 54 55 57 58 60 61 61 60 61 61 62 61 61 60 60 61 61 61 62 61 63 63 63 63 63 60
43 40 40 40 44 50 52 48 48 47 48 44 44 46 47 46 45 51 56 54 53 52 52 54 59 61 59 58 58 58 51 59 59 59 60 59 61 62 62 62 61 61 61 62 62 62 62 62 62 62 63 64 64 64
45 45 45 44 44 47 50 46 46 47 46 45 45 46 46 48 50 56 58 57 55 55 55 58 62 60 61 60 60 58 52 59 56 47 44 42 41 49 59 61 61 62 61 60 61 61 61 62 63 63 63 63 64 64
MSLP
1024.38 1023.97 1023.52 1023.07 1022.59 1022.29 1021.79 1021.26 1020.72 1020.28 1019.76 1019.29 1018.84 1018.30 1017.90 1017.59 1017.26 1017.18 1017.13 1017.00 1017.03 1016.52 1014.25 1012.73 1011.89 1011.19 1010.78 1010.67 1010.72 1010.00 1009.57 1009.42 1009.21 1009.64 1010.10 1009.95 1009.60 1008.80 1008.65 1008.21 1008.33 1009.15 1009.73 1010.12 1010.08 1009.60 1008.53 1007.42 1007.11 1007.35 1007.42 1007.57 1007.83 1008.34
1024.20 1023.83 1023.42 1022.98 1022.51 1022.02 1021.60 1021.10 1020.58 1020.05 1019.59 1019.11 1018.66 1018.20 1017.79 1017.51 1017.24 1017.10 1017.31 1016.93 1016.91 1016.87 1014.04 1012.35 1011.18 1010.34 1009.93 1009.82 1010.37 1010.60 1010.58 1010.12 1009.89 1010.24 1010.59 1010.50 1010.20 1009.78 1009.35 1009.07 1008.32 1008.90 1008.91 1009.19 1009.42 1008.77 1008.03 1007.52 1007.17 1007.14 1007.19 1007.46 1007.86 1008.22
1023.83 1023.58 1023.16 1022.69 1022.29 1021.82 1021.36 1020.87 1020.32 1019.74 1019.20 1018.78 1018.36 1017.94 1017.56 1017.25 1017.02 1016.93 1016.79 1016.95 1016.91 1016.42 1013.82 1012.19 1009.99 1009.01 1009.11 1009.16 1009.61 1010.48 1009.97 1009.63 1009.82 1009.87 1010.41 1010.57 1010.38 1009.92 1009.96 1009.24 1008.60 1008.53 1008.60 1009.02 1009.10 1008.54 1008.21 1007.72 1007.72 1007.65 1007.56 1007.64 1007.55 1007.78
1023.43 1023.08 1022.76 1022.46 1021.96 1021.50 1021.05 1020.57 1020.01 1019.47 1018.86 1018.37 1017.91 1017.53 1017.14 1016.87 1016.68 1016.57 1016.54 1016.72 1016.82 1016.46 1015.32 1011.09 1009.00 1008.59 1007.85 1008.14 1008.63 1008.70 1009.12 1009.38 1009.70 1009.95 1010.31 1010.53 1010.43 1009.60 1009.59 1009.17 1008.89 1008.51 1008.66 1009.22 1009.35 1008.84 1008.43 1008.08 1007.87 1007.59 1007.62 1007.59 1007.71 1007.93
1023.35 1022.86 1022.38 1022.01 1021.61 1021.11 1020.70 1020.20 1019.68 1019.12 1018.52 1017.97 1017.48 1017.02 1016.66 1016.34 1016.16 1015.99 1015.85 1015.66 1016.02 1016.48 1015.36 1012.20 1009.80 1008.24 1007.81 1007.89 1008.19 1008.76 1009.26 1009.76 1010.18 1010.46 1010.58 1010.42 1009.81 1009.77 1009.67 1009.29 1008.68 1008.15 1008.27 1008.59 1008.53 1007.93 1007.94 1007.93 1007.77 1007.66 1007.81 1007.76 1007.75 1008.00
1023.05 1022.60 1022.10 1021.66 1021.21 1020.74 1020.29 1019.82 1019.33 1018.71 1018.06 1017.49 1016.91 1016.36 1016.02 1015.79 1015.71 1015.92 1015.55 1015.31 1015.45 1016.04 1015.55 1013.51 1010.27 1008.81 1007.95 1007.81 1008.17 1008.71 1009.33 1009.88 1010.13 1010.26 1010.17 1009.81 1009.25 1009.23 1009.75 1009.52 1007.76 1007.43 1007.32 1007.17 1007.22 1007.39 1007.69 1007.67 1007.82 1007.89 1007.94 1007.92 1008.00 1008.31
1022.60 1022.20 1021.69 1021.30 1020.85 1020.33 1019.86 1019.41 1018.86 1018.20 1017.49 1016.84 1016.15 1015.54 1015.13 1015.07 1015.47 1015.50 1015.23 1015.03 1015.07 1015.61 1015.31 1013.81 1011.55 1008.94 1008.01 1007.68 1008.26 1008.70 1008.97 1009.20 1009.52 1009.88 1009.97 1009.63 1009.22 1009.02 1009.34 1008.94 1007.19 1007.02 1006.87 1006.88 1006.97 1007.24 1008.30 1008.17 1008.08 1008.06 1008.13 1008.17 1008.45 1008.71
1022.25 1021.77 1021.35 1020.96 1020.50 1019.98 1019.45 1018.93 1018.33 1017.61 1016.81 1016.07 1015.35 1014.76 1014.18 1014.31 1014.94 1014.70 1013.96 1014.29 1015.02 1015.26 1014.96 1014.23 1011.99 1010.05 1008.18 1008.22 1008.50 1008.52 1008.80 1009.11 1009.24 1009.21 1009.45 1009.35 1009.30 1009.09 1008.78 1007.53 1007.03 1006.83 1006.92 1007.12 1007.23 1007.09 1007.28 1007.78 1008.15 1008.28 1008.35 1008.57 1008.81 1009.14
1021.93 1021.45 1021.03 1020.64 1020.18 1019.66 1019.07 1018.49 1017.79 1016.94 1016.03 1015.24 1014.59 1014.47 1014.61 1014.54 1014.50 1014.34 1013.94 1013.65 1014.67 1015.20 1014.77 1014.16 1012.96 1010.92 1008.87 1008.85 1008.64 1008.69 1008.82 1009.24 1009.20 1009.04 1009.08 1008.93 1009.15 1008.72 1007.32 1006.79 1006.87 1006.73 1006.54 1006.93 1007.44 1007.59 1007.80 1008.05 1008.29 1008.48 1008.71 1008.97 1009.25 1009.43
1021.48 1021.07 1020.67 1020.27 1019.84 1019.31 1018.75 1018.11 1017.40 1016.44 1015.35 1014.46 1014.40 1014.69 1014.55 1014.27 1013.98 1013.76 1014.19 1014.54 1014.86 1014.36 1014.35 1013.87 1012.70 1011.55 1010.24 1009.56 1009.17 1009.30 1009.26 1009.18 1009.18 1008.57 1008.56 1008.67 1008.40 1007.04 1006.53 1006.26 1006.12 1006.48 1006.66 1006.91 1007.64 1008.31 1008.44 1008.59 1008.70 1008.73 1008.89 1009.07 1009.27 1009.55
1021.05 1020.67 1020.30 1019.87 1019.44 1018.92 1018.44 1017.87 1017.30 1016.38 1015.14 1015.11 1015.45 1015.28 1014.65 1013.98 1013.75 1013.81 1013.93 1014.13 1014.03 1013.82 1013.22 1012.46 1012.06 1011.51 1010.24 1010.16 1009.77 1009.57 1009.27 1009.09 1009.11 1008.65 1008.72 1008.75 1008.22 1007.11 1006.52 1006.41 1006.18 1006.39 1006.84 1007.10 1007.08 1007.24 1007.55 1007.76 1008.20 1008.57 1008.88 1009.04 1009.27 1009.54
1020.56 1020.23 1019.86 1019.47 1019.05 1018.57 1018.11 1017.73 1017.27 1017.01 1016.75 1016.60 1016.53 1015.91 1015.28 1014.43 1013.87 1013.77 1013.37 1013.24 1012.96 1012.23 1011.70 1011.41 1011.02 1011.06 1010.46 1010.09 1009.90 1009.50 1009.28 1009.05 1008.83 1008.63 1008.76 1008.51 1007.61 1007.21 1007.06 1007.08 1007.03 1007.08 1007.23 1007.33 1007.35 1007.45 1007.59 1007.88 1008.14 1008.49 1008.76 1008.99 1009.17 1009.34
1020.13 1019.77 1019.40 1019.02 1018.65 1018.23 1017.87 1017.56 1017.14 1016.78 1016.18 1016.06 1016.00 1015.46 1015.01 1014.25 1013.74 1013.16 1012.46 1011.96 1011.62 1010.84 1010.62 1010.56 1010.68 1010.54 1010.16 1010.04 1009.92 1009.65 1009.27 1009.03 1008.44 1008.62 1008.48 1007.77 1007.35 1007.18 1007.25 1007.31 1007.51 1007.51 1007.50 1007.71 1007.81 1007.70 1007.71 1007.91 1008.15 1008.41 1008.68 1008.85 1009.05 1009.24
1019.73 1019.32 1018.94 1018.58 1018.18 1017.59 1017.41 1017.22 1016.87 1016.45 1016.45 1016.01 1015.45 1015.03 1014.43 1013.46 1012.61 1011.84 1011.52 1011.18 1010.62 1010.38 1010.46 1010.54 1010.59 1010.67 1010.29 1010.02 1010.11 1009.87 1009.14 1008.93 1008.77 1008.82 1008.43 1007.77 1007.58 1007.82 1007.70 1007.62 1007.68 1007.84 1007.85 1007.94 1007.96 1008.05 1008.17 1008.30 1008.45 1008.56 1008.70 1008.92 1009.06 1009.14
1019.32 1018.90 1018.51 1018.12 1017.81 1017.57 1017.32 1016.92 1016.50 1016.38 1016.35 1015.95 1015.36 1014.64 1013.66 1012.54 1011.80 1011.23 1010.95 1010.68 1010.56 1010.56 1010.67 1010.60 1010.97 1010.93 1010.58 1010.38 1010.09 1009.79 1009.35 1009.08 1008.89 1008.64 1008.19 1007.99 1007.98 1008.30 1008.37 1008.38 1008.20 1008.12 1008.31 1008.54 1008.63 1008.70 1008.70 1008.76 1008.81 1008.82 1008.88 1008.93 1008.97 1009.02
1018.98 1018.63 1018.21 1018.07 1017.83 1017.50 1017.04 1016.56 1016.31 1016.31 1016.05 1015.58 1014.76 1014.04 1013.18 1012.85 1011.96 1011.50 1011.11 1010.77 1010.44 1010.66 1010.52 1010.95 1011.23 1011.15 1011.03 1010.82 1010.37 1009.83 1009.46 1009.04 1008.87 1008.65 1008.42 1008.28 1008.27 1008.32 1008.46 1008.49 1008.49 1008.62 1008.80 1008.92 1009.02 1009.09 1009.08 1009.06 1009.02 1008.96 1008.91 1008.94 1009.01 1009.04
1018.79 1018.64 1018.27 1018.07 1017.74 1017.23 1016.71 1016.71 1016.52 1016.20 1015.56 1014.71 1013.85 1013.46 1013.34 1012.91 1012.45 1011.95 1011.44 1010.99 1010.72 1010.96 1011.31 1011.11 1011.09 1010.92 1011.06 1010.82 1010.25 1009.42 1009.28 1009.09 1008.85 1008.74 1008.59 1008.88 1008.70 1007.94 1008.49 1008.66 1008.78 1009.02 1009.18 1009.28 1009.36 1009.34 1009.32 1009.23 1009.14 1009.10 1009.15 1009.16 1009.13 1008.98
1018.61 1018.28 1018.19 1018.02 1017.82 1017.22 1016.76 1016.51 1016.34 1015.57 1014.61 1013.73 1013.71 1013.20 1013.00 1012.62 1012.38 1012.09 1011.68 1011.30 1011.27 1011.13 1011.11 1010.79 1010.47 1010.64 1010.64 1010.29 1009.89 1009.33 1009.08 1008.84 1008.78 1008.73 1007.93 1008.55 1008.79 1009.00 1008.78 1008.81 1009.06 1009.08 1009.26 1009.45 1009.50 1009.55 1009.53 1009.46 1009.40 1009.29 1009.14 1009.05 1008.96 1008.94
1018.29 1018.14 1017.95 1017.87 1017.87 1017.68 1017.14 1016.41 1015.87 1014.96 1013.81 1013.31 1013.09 1013.01 1012.75 1012.35 1011.87 1011.52 1011.30 1011.00 1010.96 1010.87 1010.87 1010.82 1010.40 1010.07 1009.83 1009.50 1009.26 1009.16 1008.99 1008.79 1008.76 1008.72 1008.54 1008.37 1008.69 1008.91 1008.77 1008.91 1008.98 1009.14 1009.34 1009.46 1009.62 1009.73 1009.76 1009.69 1009.56 1009.32 1009.08 1008.96 1008.94 1009.03
1017.82 1017.52 1017.33 1017.33 1017.57 1017.46 1017.07 1016.35 1015.58 1014.87 1013.79 1013.32 1013.11 1013.12 1012.85 1012.29 1011.38 1010.91 1010.67 1010.69 1010.83 1010.76 1010.56 1009.94 1009.28 1008.85 1008.70 1008.59 1008.45 1008.56 1008.40 1008.38 1008.40 1008.41 1008.19 1008.07 1008.21 1008.38 1008.61 1008.74 1008.93 1009.11 1009.37 1009.64 1009.82 1009.81 1009.72 1009.68 1009.64 1009.40 1009.29 1009.25 1009.24 1009.39
1017.56 1017.28 1017.04 1017.16 1017.25 1017.36 1017.07 1016.43 1015.63 1014.80 1014.08 1013.68 1013.20 1012.98 1012.25 1011.55 1011.12 1010.63 1010.25 1009.99 1010.47 1009.99 1009.46 1008.72 1008.40 1007.94 1007.65 1007.49 1007.61 1007.87 1007.83 1008.10 1008.13 1008.22 1008.23 1008.27 1008.18 1008.11 1008.32 1008.51 1008.81 1009.09 1009.30 1009.59 1009.65 1009.66 1009.59 1009.56 1009.56 1009.33 1009.30 1009.35 1009.52 1009.09
1017.51 1017.23 1017.19 1017.12 1017.10 1017.03 1016.73 1016.16 1015.76 1014.94 1014.58 1013.51 1013.15 1012.41 1011.88 1011.15 1010.28 1009.67 1009.27 1009.37 1009.08 1008.35 1007.79 1007.44 1007.23 1007.18 1007.19 1007.19 1007.19 1007.07 1006.89 1006.99 1007.35 1007.64 1007.94 1007.99 1008.08 1007.99 1008.15 1008.21 1008.66 1008.91 1009.01 1009.10 1009.25 1009.24 1009.19 1009.09 1009.13 1009.20 1009.23 1009.02 1008.95 1009.02
1017.35 1017.28 1016.92 1016.91 1016.90 1016.50 1015.94 1015.40 1015.20 1014.40 1013.82 1012.88 1012.21 1011.64 1010.98 1010.27 1009.13 1008.66 1008.54 1008.10 1007.46 1006.53 1006.28 1006.18 1005.85 1005.92 1006.16 1006.20 1006.44 1006.50 1006.63 1006.57 1007.12 1007.14 1007.20 1007.30 1007.31 1007.45 1007.68 1007.58 1007.74 1008.09 1008.41 1008.41 1008.55 1008.69 1008.81 1008.68 1008.80 1009.05 1009.00 1008.91 1008.80 1008.77
1017.19 1017.09 1016.65 1016.40 1016.33 1015.93 1015.43 1014.92 1014.49 1013.90 1013.13 1012.48 1011.73 1010.80 1009.91 1009.33 1008.54 1008.15 1007.62 1007.01 1006.52 1006.21 1006.09 1005.83 1005.69 1005.79 1006.03 1006.09 1006.15 1006.03 1005.99 1006.21 1006.46 1006.65 1006.66 1006.97 1007.14 1007.07 1007.18 1007.16 1007.16 1007.15 1007.20 1007.47 1007.76 1008.05 1008.23 1008.37 1008.40 1008.65 1008.71 1008.68 1008.68 1008.68
1017.29 1016.92 1016.74 1016.03 1015.75 1015.46 1014.97 1014.19 1013.53 1013.13 1012.37 1011.69 1011.01 1010.08 1009.24 1008.76 1008.30 1007.54 1006.78 1006.57 1006.27 1006.12 1005.97 1005.59 1005.36 1005.43 1005.59 1005.39 1005.36 1005.27 1005.10 1005.39 1005.66 1005.86 1005.62 1006.00 1006.27 1006.64 1006.69 1006.62 1006.52 1006.26 1006.45 1006.85 1007.06 1007.24 1007.50 1007.79 1007.94 1008.07 1008.16 1008.26 1008.32 1008.29
1016.79 1016.28 1016.23 1015.47 1014.97 1014.83 1014.17 1013.52 1012.84 1012.30 1011.93 1011.18 1010.24 1009.50 1008.83 1008.41 1007.89 1007.21 1006.82 1006.43 1006.03 1005.97 1006.00 1005.83 1005.58 1005.47 1005.33 1005.18 1004.97 1004.75 1004.75 1004.89 1005.19 1005.56 1005.13 1005.27 1005.48 1005.97 1006.16 1006.20 1005.75 1005.35 1005.37 1005.49 1005.91 1006.31 1006.65 1006.93 1007.21 1007.39 1007.51 1007.53 1007.73 1007.90
1016.21 1015.58 1015.28 1014.91 1014.70 1014.29 1013.71 1013.08 1012.57 1012.24 1011.56 1010.70 1009.93 1009.40 1008.56 1007.65 1007.05 1007.03 1006.80 1006.52 1006.14 1005.87 1005.78 1005.70 1005.62 1005.27 1004.97 1004.66 1004.40 1004.25 1004.28 1004.42 1004.51 1004.44 1004.39 1004.35 1004.50 1004.79 1005.05 1005.15 1004.91 1004.37 1004.37 1004.69 1005.08 1005.36 1005.67 1005.98 1006.24 1006.49 1006.60 1006.65 1006.70 1006.74
1015.75 1015.29 1015.02 1014.63 1014.37 1013.93 1013.42 1012.72 1012.09 1011.33 1010.68 1010.14 1009.91 1009.02 1008.16 1007.54 1007.00 1006.80 1006.37 1006.29 1006.10 1005.31 1004.97 1004.75 1004.54 1004.40 1004.26 1004.19 1004.05 1004.07 1003.99 1004.02 1004.18 1004.23 1004.33 1004.21 1004.07 1004.07 1004.03 1003.89 1003.71 1003.79 1004.02 1004.29 1004.40 1004.57 1004.79 1005.03 1005.36 1005.48 1005.75 1005.77 1005.58 1005.67
1015.35 1014.88 1014.63 1014.34 1014.09 1013.52 1012.54 1011.93 1011.12 1010.28 1009.77 1009.61 1009.35 1008.93 1008.07 1007.02 1006.59 1006.22 1005.49 1005.49 1005.51 1005.11 1004.94 1004.24 1003.62 1003.48 1003.44 1003.41 1003.39 1003.46 1003.68 1003.92 1004.12 1004.02 1003.70 1003.55 1003.60 1003.39 1003.05 1003.20 1003.27 1003.39 1003.52 1003.73 1003.94 1003.85 1003.98 1004.28 1004.37 1004.50 1004.69 1004.95 1004.94 1005.02
1014.32 1014.08 1014.02 1013.59 1013.20 1012.23 1011.02 1010.28 1009.88 1009.40 1009.19 1008.98 1008.68 1008.18 1007.51 1006.63 1005.98 1005.59 1004.90 1004.66 1004.98 1004.28 1003.84 1003.72 1003.43 1003.51 1003.27 1003.24 1003.13 1003.06 1003.09 1003.18 1003.21 1003.16 1002.87 1002.87 1002.68 1002.29 1002.52 1002.62 1002.77 1002.96 1003.20 1003.41 1003.60 1003.90 1004.12 1004.23 1004.46 1004.49 1004.45 1004.61 1004.84 1004.82
1013.43 1013.48 1013.19 1012.49 1011.41 1010.03 1009.41 1008.96 1008.72 1008.69 1008.49 1008.11 1007.96 1007.81 1006.87 1006.39 1005.22 1004.22 1003.88 1003.53 1003.52 1003.53 1003.37 1003.18 1002.93 1002.86 1002.87 1002.87 1003.06 1003.05 1002.88 1002.72 1002.54 1002.41 1002.27 1002.20 1002.19 1002.13 1002.08 1002.24 1002.36 1002.59 1002.92 1003.02 1003.24 1003.56 1003.91 1004.09 1004.28 1004.44 1004.44 1004.38 1004.47 1004.67
1012.44 1012.24 1011.84 1011.13 1009.79 1008.62 1008.30 1008.06 1007.86 1007.63 1007.25 1007.06 1006.86 1006.76 1006.65 1006.43 1005.90 1004.38 1003.36 1003.15 1003.08 1003.12 1002.86 1002.62 1002.21 1001.97 1002.04 1002.24 1002.31 1002.38 1002.39 1002.06 1002.21 1002.24 1002.11 1002.02 1001.72 1001.44 1001.51 1001.77 1002.07 1002.36 1002.60 1002.98 1003.26 1003.51 1003.79 1004.01 1004.20 1004.31 1004.39 1004.32 1004.11 1004.01
1011.03 1010.78 1010.54 1010.20 1009.21 1008.25 1007.57 1007.64 1007.25 1006.90 1006.66 1006.48 1006.14 1005.95 1005.81 1005.67 1005.04 1003.95 1003.20 1003.11 1003.05 1002.76 1002.59 1002.24 1001.73 1001.55 1001.61 1001.61 1001.89 1002.33 1002.46 1002.31 1002.39 1002.54 1002.33 1002.05 1001.59 1001.32 1001.27 1001.43 1001.75 1002.13 1002.58 1002.92 1003.32 1003.53 1003.66 1003.75 1003.81 1003.87 1003.90 1003.87 1003.72 1003.56
Wind_Speed
15 15 16 16 17 17 17 17 18 18 19 18 18 18 16 14 12 5 3 3 2 2 7 6 4 4 2 2 2 4 4 3 4 4 3 3 3 5 2 4 2 6 5 4 3 2 6 2 1 7 5 3 6 5
14 15 15 16 17 17 17 17 17 17 18 18 19 18 17 14 11 4 2 2 1 3 8 4 7 10 8 6 5 2 3 3 4 4 1 3 2 1 3 3 1 2 6 6 6 5 4 4 2 3 3 6 4 5
14 14 15 15 16 17 18 18 18 18 18 18 19 19 18 15 10 4 4 2 1 2 7 3 7 6 6 15 6 5 3 3 1 4 4 2 2 4 4 6 2 1 3 4 3 2 1 4 2 2 3 5 5 5
14 14 14 15 16 17 18 19 20 20 20 19 19 19 18 15 10 5 3 2 1 0 2 9 3 6 1 5 14 15 3 3 4 2 2 2 2 3 4 3 3 5 4 5 2 2 2 2 2 4 2 2 2 2
15 15 15 15 16 17 18 19 21 22 22 21 21 21 19 15 11 6 5 5 3 2 3 7 11 4 5 6 10 11 4 2 2 2 1 3 1 2 1 2 3 5 8 6 7 9 5 5 4 4 5 3 2 1
15 16 16 16 16 17 18 21 22 23 23 23 23 22 19 12 7 1 2 3 5 4 1 5 5 5 4 4 7 7 5 2 2 4 3 3 3 4 2 3 6 4 4 6 6 6 6 6 5 2 4 3 0 2
15 16 16 17 17 17 18 21 22 23 24 24 25 23 18 9 3 3 2 1 7 2 0 6 7 5 4 1 2 3 3 3 3 2 2 3 2 4 3 4 6 3 3 3 7 10 4 3 5 6 4 4 3 0
15 16 16 17 17 18 19 20 23 24 25 26 25 21 7 7 3 3 2 11 4 2 1 2 6 6 4 2 1 1 3 1 1 2 1 2 1 2 3 8 5 5 5 6 8 2 6 6 5 5 3 3 2 4
15 16 16 16 17 17 18 20 22 25 25 25 21 4 1 1 1 1 7 8 1 2 2 1 2 4 5 2 1 3 2 1 1 3 3 4 0 4 8 8 8 10 9 9 5 5 7 8 8 6 5 5 5 5
15 16 16 17 17 18 19 21 22 25 26 18 1 1 1 1 11 2 1 2 2 2 0 3 1 5 2 3 3 1 2 2 1 4 2 2 5 5 6 7 6 8 7 10 8 4 2 3 7 6 7 6 5 3
15 16 16 17 18 18 18 20 21 22 9 5 4 3 4 11 2 2 1 2 2 3 3 4 5 3 2 1 3 1 1 1 1 4 4 2 5 5 3 3 5 7 8 5 2 5 8 5 7 7 6 6 4 4
16 17 16 17 18 18 18 18 16 5 1 3 4 5 3 3 2 1 3 0 4 5 3 4 4 5 4 1 1 2 1 1 5 1 1 3 5 1 4 5 6 6 6 5 2 3 3 5 5 5 4 4 5 3
16 17 17 17 18 18 17 18 13 12 8 1 2 3 1 2 1 4 4 2 2 2 2 1 1 1 2 3 0 2 0 5 1 1 4 6 2 4 6 5 5 3 4 3 3 1 1 3 3 5 5 4 3 3
16 16 16 16 19 17 11 11 12 7 2 2 2 5 4 3 4 4 3 3 3 3 2 2 1 0 1 3 0 2 2 2 3 2 5 3 2 3 3 3 5 5 5 3 1 3 5 4 4 3 3 2 2 3
14 14 15 13 7 12 12 14 13 1 1 3 1 5 5 4 3 1 2 1 2 1 1 2 2 2 3 2 1 3 2 3 4 4 4 2 3 3 0 1 2 4 2 2 3 3 4 4 4 4 2 2 1 2
13 12 2 7 10 13 15 9 1 0 2 3 5 3 3 2 2 2 2 3 2 1 2 2 1 3 2 1 1 5 2 3 3 3 3 2 5 2 4 2 2 3 3 2 2 3 3 3 3 4 3 1 1 2
8 3 5 8 12 15 12 2 2 3 4 4 4 2 2 3 4 3 1 1 0 2 1 1 4 5 1 1 3 3 3 3 3 3 2 4 4 6 3 3 4 3 3 2 2 4 3 3 3 3 3 2 3 3
3 3 7 10 9 7 2 2 3 4 6 4 3 3 2 2 2 3 3 2 1 1 2 3 2 4 4 4 3 3 2 3 2 3 3 3 6 5 4 5 5 5 4 4 3 2 3 4 3 2 3 2 2 1
5 6 11 12 6 3 2 3 3 4 5 3 3 2 3 4 4 4 3 4 4 3 1 2 4 4 5 4 4 2 2 2 1 2 2 4 6 6 5 4 4 3 3 2 2 1 1 1 2 3 1 2 2 3
14 15 14 12 6 2 3 4 2 4 3 2 2 3 3 4 3 3 3 3 4 3 4 5 5 4 4 4 4 3 3 1 1 2 2 3 3 4 5 4 3 3 2 1 1 1 1 2 2 1 2 3 5 4
5 3 3 3 2 2 3 3 3 3 4 3 3 3 5 2 4 3 4 4 3 4 4 4 4 5 5 3 4 4 4 4 3 2 3 3 2 4 3 3 3 3 3 2 1 1 2 2 2 2 2 3 1 3
2 4 1 2 2 2 3 3 3 3 3 4 3 3 4 4 4 3 2 2 4 5 5 5 7 6 5 6 6 5 4 3 3 3 3 3 3 3 3 4 4 3 4 4 3 3 3 3 3 2 1 1 1 1
4 2 2 3 3 2 4 2 3 3 3 3 2 3 3 3 4 2 3 4 4 4 4 6 8 6 9 6 4 4 7 4 4 5 5 4 3 3 3 4 4 4 4 4 4 4 4 5 5 3 3 2 1 1
1 2 2 2 4 3 2 3 3 3 3 3 3 4 4 3 2 3 4 3 2 2 2 5 3 3 1 3 4 5 6 7 6 4 4 3 3 5 4 4 4 5 5 3 4 4 4 4 4 3 3 3 3 2
2 3 3 4 2 3 3 3 3 3 3 3 3 4 3 1 3 3 1 3 4 3 4 5 1 3 4 4 4 5 6 5 4 6 4 5 2 0 3 4 4 5 4 5 5 5 4 4 4 4 4 4 5 5
4 4 4 3 2 4 3 3 3 2 2 3 4 3 2 2 3 3 3 2 2 1 3 5 4 3 2 4 3 3 4 5 6 7 7 6 6 5 4 5 2 4 6 6 4 6 6 6 6 7 6 8 9 6
4 4 4 3 2 3 4 4 3 3 3 4 3 2 3 4 2 3 2 3 3 4 3 3 4 5 6 5 3 3 3 3 5 4 1 5 5 6 5 5 5 6 4 6 6 6 7 7 6 6 7 5 6 7
3 2 4 1 2 3 4 3 3 4 4 3 2 4 2 3 1 1 3 2 5 8 9 8 7 5 6 5 4 3 3 3 3 3 2 3 4 5 7 6 6 4 4 5 7 5 6 6 7 7 7 8 7 6
3 3 2 6 4 4 5 5 5 4 3 3 3 3 5 3 2 4 9 8 6 5 9 9 7 2 2 3 3 3 3 3 5 6 8 4 1 4 5 5 4 4 4 5 8 9 11 9 8 8 7 5 6 4
4 4 3 3 4 6 6 6 4 4 3 4 3 4 7 9 10 9 12 8 6 11 6 5 5 3 3 2 2 0 2 5 5 4 5 5 6 3 3 3 4 4 4 5 4 3 4 4 3 3 4 3 3 4
2 3 3 4 5 5 7 8 6 3 5 7 7 9 12 7 7 7 8 8 7 7 6 7 4 4 3 4 3 3 2 2 2 2 3 4 4 4 4 5 4 3 3 4 5 4 3 2 2 3 4 5 5 5
4 7 4 4 4 3 4 4 3 3 2 1 2 2 1 3 4 4 3 3 1 3 7 7 6 4 5 4 4 3 5 3 4 4 5 4 4 5 4 3 3 4 5 4 3 3 4 6 3 4 5 8 7 7
3 4 4 3 4 4 2 1 3 3 2 2 3 4 4 3 3 3 3 1 3 3 4 6 7 4 4 6 4 2 1 2 5 6 4 3 4 5 2 3 4 6 6 4 3 4 6 8 6 6 7 7 7 7
Wind_Direction
324 324 325 327 329 330 331 333 335 334 336 337 336 339 341 345 349 3 277 224 135 233 273 216 238 229 307 139 183 289 16 339 25 66 129 209 165 224 163 228 194 195 162 190 111 107 248 85 53 173 192 89 137 174
322 322 323 326 327 328 326 327 329 331 334 332 331 331 332 334 336 23 290 325 26 195 252 242 233 228 215 194 125 318 208 236 205 93 178 120 206 117 151 247 72 250 185 177 175 200 264 285 118 99 126 130 155 171
317 317 318 320 322 322 323 324 324 327 329 328 327 325 325 323 319 311 277 262 17 300 296 328 245 257 212 228 177 168 267 201 182 172 161 173 199 129 175 239 176 1 166 97 79 231 60 68 32 137 186 166 172 212
314 313 314 316 318 319 320 320 323 321 324 324 323 322 321 319 310 287 245 198 132 186 297 280 307 291 185 152 192 210 132 42 96 82 120 147 189 170 202 208 167 199 109 141 297 16 67 39 130 159 128 124 196 162
312 310 311 311 313 317 320 322 323 322 321 321 320 318 317 314 304 278 245 233 187 125 259 283 307 270 268 180 183 201 204 93 47 342 83 239 204 118 347 68 265 182 174 161 206 203 154 190 188 170 160 178 205 134
312 312 311 311 311 316 320 322 320 320 318 316 315 313 311 303 300 316 312 204 190 183 270 304 294 294 317 177 165 171 154 141 152 169 218 263 256 111 121 221 259 223 206 180 198 150 167 152 163 167 163 192 225 197
310 312 313 312 312 316 322 321 319 317 316 314 313 313 301 266 171 184 204 320 158 136 201 307 315 283 297 68 119 128 133 190 155 184 210 200 244 104 133 193 257 212 229 177 138 112 76 173 193 205 198 173 152 259
310 312 314 315 317 322 323 320 319 317 315 313 314 320 324 155 208 304 271 199 145 154 139 290 276 331 4 350 113 1 122 94 226 192 72 189 19 86 245 239 244 171 119 117 170 37 156 144 145 187 161 143 223 248
309 312 313 315 318 318 319 318 318 317 314 313 316 174 108 83 115 197 47 134 87 113 287 232 269 281 354 349 287 25 77 133 296 201 232 111 189 220 227 209 182 196 174 168 132 111 134 159 179 189 188 215 234 253
306 310 311 312 315 317 318 319 321 318 315 314 87 306 343 244 313 16 95 94 185 249 164 234 266 271 20 1 327 77 35 194 204 244 97 153 242 252 242 230 208 155 163 137 114 128 160 211 197 199 208 217 222 240
301 304 307 311 314 318 320 322 323 324 338 14 9 321 309 313 53 47 188 174 176 248 200 234 193 250 300 159 270 114 197 190 186 262 143 259 275 256 297 173 143 136 144 172 184 179 193 189 191 203 222 224 239 263
299 302 303 307 312 317 319 321 323 343 291 268 287 288 292 336 46 179 231 214 204 232 202 196 219 197 275 114 95 315 246 61 238 205 107 261 252 305 81 94 95 117 144 162 157 174 192 218 222 214 219 232 243 275
299 301 302 304 308 310 311 314 310 300 303 237 218 251 71 273 69 209 217 251 271 224 198 191 313 293 346 43 340 353 298 239 10 154 230 230 257 178 148 127 114 124 106 130 156 57 338 237 202 194 221 244 288 326
302 302 301 301 308 307 302 302 312 327 334 292 290 303 207 227 242 196 205 236 273 329 51 21 348 284 285 39 343 346 270 16 324 288 250 267 204 183 145 135 131 166 161 150 204 312 280 259 254 258 251 321 325 337
305 304 304 304 319 334 325 312 316 281 272 271 244 240 235 262 271 326 304 20 358 116 195 82 32 17 6 0 298 347 288 259 217 244 250 305 100 110 199 281 150 113 88 33 15 355 333 326 301 301 335 298 251 303
317 311 334 348 346 333 320 314 318 172 262 249 236 269 246 354 271 0 354 347 21 347 39 61 70 37 300 212 251 228 264 231 278 304 332 136 96 70 261 196 122 94 71 42 12 353 336 338 294 281 307 287 276 312
313 250 310 331 335 322 309 280 336 245 238 240 253 232 242 270 235 242 302 275 276 85 339 191 194 211 82 296 260 203 222 256 278 287 161 27 307 193 151 143 111 112 121 98 61 31 12 348 350 10 354 334 320 301
237 269 300 306 338 306 278 217 250 249 246 239 229 247 209 227 242 257 253 278 13 229 165 241 166 173 224 207 246 248 259 286 277 285 71 47 293 280 199 157 155 141 117 99 82 56 32 28 22 331 291 284 309 108
282 287 288 295 297 297 289 274 236 261 252 262 256 237 234 250 242 234 221 233 198 194 199 237 236 195 222 208 194 229 248 214 82 308 249 158 203 214 191 151 137 128 133 118 91 67 289 335 312 325 350 73 89 89
289 284 281 272 249 244 273 264 245 273 282 311 300 281 245 243 259 243 234 193 165 181 210 218 207 204 187 216 191 195 191 256 146 328 285 216 167 167 192 161 178 175 144 113 131 174 37 23 16 37 62 71 97 103
310 282 320 140 162 230 284 303 265 255 300 285 277 304 266 274 244 229 239 161 164 208 222 219 217 232 213 205 184 193 186 178 211 176 259 317 252 189 182 181 167 164 165 200 223 105 162 162 208 214 153 101 158 201
261 307 269 195 236 221 253 226 254 291 274 259 298 229 271 283 265 230 172 157 213 221 202 196 212 213 210 207 216 220 188 180 243 200 227 225 248 197 204 198 158 204 207 204 194 177 174 195 205 183 201 298 161 123
291 220 232 188 240 237 263 181 251 238 264 265 271 255 238 248 238 142 245 212 244 232 222 220 215 194 207 221 192 210 209 173 252 253 225 213 236 263 236 200 186 187 205 229 196 183 210 201 199 200 212 248 286 314
150 259 244 231 191 262 277 243 231 257 271 260 251 273 272 247 300 254 245 222 284 314 288 261 197 166 68 126 190 206 208 205 227 227 222 208 226 255 227 243 204 214 205 152 183 187 190 218 184 188 213 206 203 223
272 245 236 243 246 228 251 247 221 239 253 245 255 262 265 273 251 247 264 5 339 341 336 341 329 214 204 218 204 213 195 173 209 249 238 191 180 89 277 258 241 227 168 169 191 191 194 176 192 191 213 217 222 235
239 206 196 236 207 215 230 262 244 262 272 264 258 281 286 259 265 291 345 312 271 337 17 344 341 346 288 216 234 199 192 192 199 224 245 185 190 190 221 235 284 290 188 197 153 184 201 193 187 188 208 223 227 225
244 244 213 221 261 290 260 256 246 254 261 257 265 251 252 256 237 191 263 338 323 300 310 313 279 292 290 298 280 247 221 172 191 210 102 189 193 189 185 209 224 237 168 180 186 178 189 199 199 199 217 221 218 210
261 279 235 286 263 230 257 253 253 234 230 212 288 253 253 249 287 254 204 218 279 311 314 306 292 255 248 233 228 241 249 228 262 254 265 267 228 215 219 228 236 218 193 193 207 189 188 185 196 205 210 233 243 198
236 242 237 261 244 246 237 217 235 231 214 201 211 238 265 256 238 300 299 307 302 278 281 287 295 324 232 231 246 224 206 191 165 185 177 172 179 256 201 217 238 216 210 223 222 208 199 194 200 206 211 223 252 236
236 180 212 243 219 235 234 203 222 232 219 217 237 283 280 276 277 278 280 278 257 267 262 273 293 236 248 212 275 150 165 190 205 207 167 188 212 237 167 220 231 225 203 203 201 139 103 141 112 173 168 213 233 238
240 171 234 235 255 234 233 247 251 241 239 251 241 248 263 296 299 272 251 257 244 248 266 270 269 228 192 200 184 185 174 253 207 203 245 259 251 247 239 220 204 169 188 173 160 165 148 123 191 242 252 243 254 251
191 208 212 237 262 256 259 215 221 236 262 249 263 187 219 189 254 282 283 322 194 200 235 252 262 229 180 193 207 268 274 162 184 239 270 283 245 224 219 199 169 171 172 178 178 179 199 214 212 217 243 256 255 253
231 222 224 254 263 265 247 217 263 272 232 258 244 199 206 207 260 284 309 349 281 271 245 246 255 266 265 235 191 193 229 349 337 296 235 210 243 235 233 174 169 161 167 176 204 212 214 205 210 219 226 241 256 262